Вернуться в каталог

STARLINK-4493

АктивенСвязьVLEO
NORAD 53533·PAYLOAD·🇺🇸 United States

Запущен Aug 19, 2022 с Cape Canaveral Space Force Station

Loading…

Ближайшие Пролёты (ближайшие 24 часа)

TLE

СвежийSource: CelesTrak SupGP

Эпоха: Sep 14, 2026, 22:20 UTC

1 53533C 22101G   26257.93104167  .00028319  00000+0  91077-3 0  2574
2 53533  53.1578 293.8048 0001231  82.8682 184.1440 15.31684033    12

Отслеживайте STARLINK-4493 в реальном времени с AllMySat

Download on the App Store